Simultaneous Nadir Overpasses (SNOs) Predictions

Prediction of SNOs over PacNW region [( 10.00, 139.50) to ( 22.70, 165.60)] between AQUA and NPP Satellites:

Table of predicted SNOs over PacNW region for the next 30.0 days since TLE Epoch: 1/31/2020
Index Date (AQUA) Time (AQUA) AQUA Lat,Lon Date (NPP) Time (NPP) NPP Lat,Lon Distance(km) Time Diff (sec)
1 02/02/2020 15:59:18 22.61, 147.50 02/02/2020 16:01:12 23.26, 144.64 301.86 114
2 02/10/2020 15:09:53 22.63, 159.87 02/10/2020 15:10:32 23.21, 157.29 271.59 39
3 02/18/2020 15:59:20 22.60, 147.51 02/18/2020 16:01:19 23.23, 144.60 306.69 119
4 02/26/2020 15:09:53 22.58, 159.88 02/26/2020 15:10:37 23.18, 157.26 276.83 44




NCC Satellite Simultaneous Nadir Overpasses (SNOs) Prediction Service
